Total_Precipitation_Accumulation
0.48 0.72 0.95 0.88 0.82 0.89 0.93 0.99 0.99 0.90 0.69 0.69 0.66 0.54 0.51 0.52 0.51 0.47 0.43 0.36 0.33 0.29 0.23 0.22 0.25 0.26 0.25 0.25 0.28 0.34 0.38 0.46 0.53 0.61 0.75 0.96 1.24 1.35 1.44 1.40 1.22 1.16 1.28 1.52
0.56 0.62 0.56 0.51 0.60 0.77 0.88 1.03 1.02 0.91 0.63 0.58 0.56 0.47 0.42 0.43 0.47 0.41 0.38 0.35 0.27 0.23 0.16 0.14 0.16 0.17 0.17 0.17 0.19 0.25 0.33 0.43 0.51 0.60 0.78 0.94 1.08 1.08 1.26 1.41 1.39 1.30 1.29 1.44
0.55 0.50 0.41 0.45 0.58 0.77 0.83 0.84 0.85 0.85 0.66 0.55 0.51 0.50 0.37 0.34 0.38 0.34 0.31 0.30 0.27 0.21 0.17 0.15 0.14 0.13 0.12 0.13 0.14 0.18 0.25 0.36 0.49 0.64 0.87 1.09 1.27 1.36 1.42 1.35 1.43 1.44 1.37 1.41
0.53 0.43 0.39 0.48 0.55 0.62 0.75 0.52 0.49 0.56 0.69 0.70 0.58 0.64 0.39 0.34 0.40 0.38 0.33 0.28 0.26 0.22 0.17 0.16 0.13 0.14 0.13 0.12 0.11 0.15 0.24 0.39 0.60 0.81 1.06 1.31 1.51 1.55 1.44 1.48 1.51 1.40 1.34 1.31
0.48 0.38 0.38 0.44 0.42 0.41 0.49 0.40 0.39 0.46 0.57 0.54 0.41 0.49 0.40 0.36 0.46 0.44 0.38 0.33 0.27 0.22 0.20 0.18 0.16 0.19 0.19 0.19 0.20 0.27 0.47 0.72 0.97 1.19 1.44 1.72 1.72 1.61 1.51 1.51 1.48 1.42 1.44 1.40
0.41 0.32 0.35 0.34 0.31 0.31 0.34 0.38 0.42 0.46 0.54 0.53 0.34 0.40 0.44 0.37 0.40 0.43 0.42 0.35 0.28 0.23 0.26 0.31 0.35 0.41 0.46 0.49 0.64 0.83 1.10 1.28 1.37 1.49 1.65 1.76 1.73 1.74 1.68 1.50 1.40 1.40 1.44 1.49
0.40 0.32 0.26 0.22 0.29 0.29 0.29 0.43 0.66 0.71 0.71 0.53 0.30 0.45 0.51 0.38 0.32 0.32 0.34 0.29 0.24 0.28 0.36 0.48 0.63 0.76 0.87 1.00 1.14 1.27 1.45 1.60 1.55 1.52 1.56 1.60 1.60 1.59 1.58 1.52 1.42 1.36 1.37 1.39
0.41 0.38 0.24 0.18 0.22 0.26 0.26 0.38 0.71 0.84 0.69 0.50 0.42 0.62 0.59 0.45 0.33 0.25 0.19 0.19 0.29 0.42 0.55 0.65 0.74 0.85 1.01 1.16 1.22 1.23 1.34 1.44 1.42 1.40 1.36 1.32 1.38 1.40 1.36 1.28 1.26 1.30 1.37 1.35
0.27 0.26 0.13 0.11 0.13 0.17 0.24 0.26 0.33 0.52 0.43 0.43 0.51 0.71 0.61 0.40 0.34 0.28 0.24 0.28 0.43 0.62 0.81 0.96 1.07 1.19 1.24 1.27 1.33 1.25 1.25 1.31 1.32 1.26 1.17 1.15 1.19 1.25 1.26 1.20 1.21 1.19 1.19 1.12
0.15 0.17 0.10 0.08 0.11 0.14 0.23 0.30 0.38 0.60 0.71 0.73 0.70 0.74 0.63 0.49 0.45 0.48 0.55 0.65 0.70 0.80 1.05 1.35 1.59 1.76 1.60 1.33 1.23 1.19 1.12 1.14 1.23 1.22 1.14 1.08 1.15 1.15 1.13 1.16 1.13 1.12 1.12 1.03
0.10 0.15 0.11 0.09 0.13 0.16 0.23 0.35 0.45 0.60 0.72 0.94 1.11 1.10 0.87 0.87 0.89 0.96 1.07 1.12 1.12 1.22 1.20 1.36 1.55 1.73 1.63 1.33 1.10 1.12 1.14 1.12 1.11 1.10 1.10 1.09 1.06 0.95 0.93 0.98 0.98 0.97 0.97 1.01
0.07 0.14 0.13 0.10 0.15 0.21 0.33 0.45 0.59 0.84 0.78 0.81 1.06 1.18 0.97 0.95 0.97 1.06 1.24 1.32 1.30 1.21 1.11 1.10 1.15 1.22 1.24 1.11 0.92 0.89 1.04 1.11 1.07 1.03 1.04 1.03 0.92 0.86 0.82 0.80 0.77 0.69 0.66 0.69
0.06 0.17 0.26 0.26 0.35 0.41 0.57 0.64 0.53 0.53 0.61 0.70 0.95 0.94 0.64 0.59 0.74 0.90 1.05 1.14 1.06 1.01 1.09 1.05 0.97 0.91 0.93 0.91 0.83 0.80 0.94 1.09 1.13 1.10 0.95 0.85 0.80 0.76 0.74 0.66 0.61 0.58 0.52 0.52
0.06 0.12 0.23 0.36 0.40 0.45 0.65 0.74 0.58 0.49 0.58 0.58 0.62 0.55 0.38 0.43 0.60 0.67 0.70 0.71 0.71 0.75 0.78 0.73 0.67 0.62 0.62 0.66 0.69 0.75 0.86 0.95 1.08 1.20 1.09 0.94 0.84 0.76 0.71 0.63 0.58 0.54 0.52 0.55
0.04 0.04 0.07 0.10 0.13 0.20 0.38 0.49 0.41 0.30 0.27 0.35 0.36 0.35 0.39 0.47 0.57 0.55 0.49 0.43 0.41 0.42 0.40 0.39 0.39 0.36 0.35 0.36 0.37 0.46 0.60 0.76 0.95 1.17 1.18 1.03 0.95 0.86 0.73 0.66 0.64 0.61 0.64 0.61
0.04 0.03 0.03 0.05 0.06 0.09 0.19 0.22 0.17 0.10 0.13 0.25 0.31 0.37 0.41 0.47 0.54 0.52 0.44 0.36 0.28 0.27 0.27 0.26 0.25 0.23 0.17 0.16 0.19 0.21 0.30 0.47 0.65 0.82 0.91 0.88 0.78 0.68 0.64 0.63 0.60 0.56 0.55 0.51
0.03 0.05 0.07 0.05 0.04 0.07 0.14 0.13 0.13 0.16 0.15 0.17 0.27 0.38 0.46 0.59 0.77 0.68 0.51 0.42 0.29 0.22 0.21 0.21 0.21 0.20 0.19 0.18 0.17 0.18 0.22 0.28 0.38 0.52 0.62 0.62 0.56 0.50 0.46 0.49 0.49 0.46 0.41 0.42
0.03 0.08 0.12 0.10 0.12 0.23 0.25 0.20 0.27 0.34 0.26 0.22 0.29 0.37 0.50 0.84 1.04 0.66 0.43 0.39 0.32 0.22 0.20 0.19 0.19 0.17 0.15 0.15 0.13 0.15 0.17 0.20 0.21 0.27 0.31 0.33 0.34 0.33 0.34 0.36 0.36 0.36 0.35 0.33
0.03 0.08 0.13 0.15 0.18 0.42 0.37 0.19 0.31 0.37 0.31 0.25 0.32 0.37 0.40 0.46 0.41 0.25 0.15 0.16 0.18 0.13 0.10 0.10 0.09 0.08 0.06 0.06 0.06 0.07 0.08 0.09 0.10 0.10 0.12 0.14 0.17 0.21 0.25 0.26 0.29 0.36 0.38 0.37
0.02 0.05 0.10 0.11 0.14 0.27 0.28 0.11 0.17 0.26 0.31 0.13 0.14 0.16 0.11 0.07 0.09 0.11 0.10 0.07 0.06 0.03 0.03 0.03 0.03 0.02 0.01 0.01 0.02 0.02 0.03 0.04 0.05 0.05 0.06 0.08 0.10 0.12 0.15 0.19 0.22 0.24 0.27 0.33
0.03 0.04 0.06 0.06 0.08 0.08 0.06 0.06 0.11 0.26 0.29 0.08 0.04 0.03 0.01 0.01 0.01 0.06 0.10 0.06 0.03 0.02 0.01 0.01 0.01 0.01 0.01 0.01 0.01 0.01 0.02 0.02 0.03 0.05 0.08 0.10 0.11 0.10 0.10 0.09 0.08 0.11 0.16 0.18
0.03 0.05 0.04 0.03 0.05 0.04 0.03 0.06 0.11 0.11 0.05 0.03 0.01 0.01 0.00 0.01 0.00 0.02 0.05 0.03 0.02 0.01 0.01 0.01 0.01 0.01 0.00 0.01 0.01 0.01 0.02 0.02 0.02 0.04 0.07 0.08 0.07 0.06 0.06 0.06 0.05 0.05 0.08 0.11
0.02 0.03 0.03 0.04 0.04 0.03 0.03 0.04 0.04 0.03 0.02 0.01 0.00 0.01 0.01 0.00 0.00 0.00 0.02 0.02 0.01 0.00 0.00 0.01 0.01 0.01 0.01 0.01 0.01 0.02 0.02 0.02 0.03 0.04 0.05 0.06 0.06 0.07 0.05 0.05 0.05 0.05 0.06 0.08
0.01 0.02 0.03 0.03 0.02 0.03 0.03 0.03 0.02 0.01 0.01 0.01 0.01 0.01 0.01 0.00 0.00 0.00 0.01 0.02 0.01 0.00 0.00 0.00 0.01 0.01 0.01 0.01 0.01 0.02 0.03 0.03 0.04 0.04 0.05 0.06 0.06 0.08 0.06 0.06 0.06 0.06 0.05 0.08
0.02 0.02 0.03 0.03 0.02 0.03 0.03 0.02 0.01 0.01 0.01 0.00 0.00 0.00 0.00 0.00 0.00 0.00 0.01 0.01 0.01 0.00 0.00 0.00 0.00 0.01 0.01 0.01 0.01 0.02 0.02 0.02 0.02 0.03 0.05 0.05 0.07 0.08 0.05 0.05 0.05 0.05 0.06 0.08
0.02 0.02 0.03 0.03 0.03 0.03 0.02 0.02 0.02 0.02 0.01 0.00 0.00 0.00 0.00 0.00 0.00 0.00 0.00 0.00 0.00 0.00 0.00 0.00 0.00 0.01 0.01 0.01 0.01 0.02 0.03 0.03 0.03 0.03 0.04 0.05 0.05 0.05 0.05 0.06 0.05 0.04 0.04 0.05